Flag for Norway Weather past 2 weeks in Lillesand, Norway

Now
48 °F

Cool.


Feels Like: 48 °F
Forecast: 51 / 58 °F
Wind: 1 mph from Southwest

Location: Kristiansand / Kjevik

Current Time: Oct 23, 2014 at 8:16:34 AM

Latest Report: Oct 23, 2014 at 7:00 AM


Visibility: N/A

Pressure: 29.97 "Hg

Humidity: 88%

Dew point: 44 °F

Location of LillesandLocation

Historic Weather in Lillesand — Graph

°F

Lillesand temperature yesterday

Maximum temperature yesterday: 53 °F (at 1:00 AM)
Minimum temperature yesterday: 50 °F (at 9:00 PM)
Average temperature yesterday: 52 °F

Past Weeks' High & Low Weather Summary

 TemperatureHumidityPressure
High60 °F (Oct 9, 1:00 PM)100% (Oct 11, 5:00 AM)30.05 "Hg (Oct 11, 5:00 AM)
Low38 °F (Oct 13, 6:00 AM)50% (Oct 13, 4:00 PM)29.26 "Hg (Oct 21, 6:00 PM)
Average50 °F88%29.72 "Hg
* Reported Oct 8 7:00 AM — Oct 23 7:00 AM, Lillesand, Weather by CustomWeather, © 2014

Note: Actual official high and low records may vary slightly from our data, if they occured in-between our weather recording intervals... More about our weather records

Advertising

Lillesand weather history for previous 24 hours

 ConditionsComfort  
Time TempWeatherWind HumidityBarometerVisibility
7:00 AM
Oct 23
48 °FCool.1 mph88%29.97 "HgN/A
6:00 AM49 °FCool.5 mph85%29.96 "HgN/A
5:00 AM50 °FCool.5 mph96%29.95 "HgN/A
4:00 AM51 °FCool.3 mph95%29.95 "HgN/A
3:00 AM53 °FCool.5 mph96%29.95 "HgN/A
2:00 AM53 °FCool.3 mph94%29.95 "HgN/A
1:00 AM52 °FCool.3 mph96%29.95 "HgN/A
12:00 AM52 °FCool.6 mph96%29.96 "HgN/A
11:00 PM
Oct 22
51 °FCool.5 mph97%29.96 "HgN/A
10:00 PM51 °FCool.3 mph97%29.96 "HgN/A
9:00 PM50 °FCool.5 mph97%29.95 "HgN/A
8:00 PM50 °FCool.5 mph96%29.94 "HgN/A
7:00 PM50 °FCool.5 mph96%29.92 "HgN/A
6:00 PM51 °FCool.5 mph95%29.91 "HgN/A
5:00 PM52 °FCool.5 mph95%29.89 "HgN/A
4:00 PM52 °FCool.5 mph94%29.87 "HgN/A
3:00 PM52 °FCool.5 mph94%29.86 "HgN/A
2:00 PM53 °FCool.5 mph93%29.84 "HgN/A
1:00 PM53 °FCool.5 mph93%29.82 "HgN/A
12:00 PM53 °FCool.3 mph92%29.79 "HgN/A
11:00 AM53 °FCool.5 mph91%29.76 "HgN/A
10:00 AM53 °FCool.5 mph92%29.72 "HgN/A
9:00 AM53 °FCool.6 mph93%29.68 "HgN/A
8:00 AM53 °FCool.6 mph93%29.64 "HgN/A
Weather by CustomWeather, © 2014

See weather overviewHow to use our weather pages